Satellite: ORSTED
Catalog number: 25635
Epoch time:      103036.50854753
Element set:     824 
Inclination:       96.4489 deg
RA of node:        25.8671 deg
Eccentricity:    0.0146178
Arg of perigee:    11.0981 deg
Mean anomaly:     349.3381 deg
Mean motion:   14.44809979 rev/day
Decay rate:    9.2099E-006 rev/day^2
Epoch rev:           20805
Checksum:              343

Satellite: SUNSAT
Catalog number: 25636
Epoch time:      103035.98718696
Element set:     732 
Inclination:       96.4516 deg
RA of node:        24.1558 deg
Eccentricity:    0.0150140
Arg of perigee:    18.9892 deg
Mean anomaly:     341.6819 deg
Mean motion:   14.42938440 rev/day
Decay rate:    4.6499E-006 rev/day^2
Epoch rev:           20785
Checksum:              341

Satellite: UOSAT 12
Catalog number: 25693
Epoch time:      103036.47694337
Element set:     679 
Inclination:       64.5579 deg
RA of node:        50.8565 deg
Eccentricity:    0.0019147
Arg of perigee:   316.9678 deg
Mean anomaly:      42.9940 deg
Mean motion:   14.76371716 rev/day
Decay rate:    5.3499E-006 rev/day^2
Epoch rev:           20432
Checksum:              358

Satellite: FENGYUN 1C
Catalog number: 25730
Epoch time:      103036.18694587
Element set:     759 
Inclination:       98.6348 deg
RA of node:        61.0892 deg
Eccentricity:    0.0015118
Arg of perigee:    43.2160 deg
Mean anomaly:     317.0196 deg
Mean motion:   14.11732179 rev/day
Decay rate:    2.2999E-007 rev/day^2
Epoch rev:           19274
Checksum:              327

Satellite: ASTRA 1H
Catalog number: 25785
Epoch time:      103023.00000000
Element set:     369 
Inclination:        0.0122 deg
RA of node:       319.8851 deg
Eccentricity:    0.0002995
Arg of perigee:    65.1991 deg
Mean anomaly:     116.0174 deg
Mean motion:    1.00273184 rev/day
Decay rate:    1.2299E-006 rev/day^2
Epoch rev:            1323
Checksum:              243

Satellite: TERRA
Catalog number: 25994
Epoch time:      103036.26565353
Element set:     668 
Inclination:       98.2003 deg
RA of node:       112.6914 deg
Eccentricity:    0.0001048
Arg of perigee:    72.2757 deg
Mean anomaly:     287.8556 deg
Mean motion:   14.57115479 rev/day
Decay rate:    5.7699E-006 rev/day^2
Epoch rev:           16673
Checksum:              344

Satellite: JAWSAT
Catalog number: 26061
Epoch time:      103035.87030376
Element set:     757 
Inclination:      100.2099 deg
RA of node:        90.3961 deg
Eccentricity:    0.0034830
Arg of perigee:   318.8154 deg
Mean anomaly:      41.0402 deg
Mean motion:   14.37807214 rev/day
Decay rate:    4.8299E-006 rev/day^2
Epoch rev:           15856
Checksum:              402

Satellite: OPAL
Catalog number: 26063
Epoch time:      103036.17266571
Element set:     714 
Inclination:      100.2149 deg
RA of node:        88.3219 deg
Eccentricity:    0.0037164
Arg of perigee:   325.0601 deg
Mean anomaly:      34.8137 deg
Mean motion:   14.35475176 rev/day
Decay rate:    1.4900E-006 rev/day^2
Epoch rev:           15846
Checksum:              283

Satellite: ASUSAT
Catalog number: 26065
Epoch time:      103036.54799311
Element set:     726 
Inclination:      100.2115 deg
RA of node:        88.9103 deg
Eccentricity:    0.0037032
Arg of perigee:   325.1198 deg
Mean anomaly:      34.7556 deg
Mean motion:   14.35502570 rev/day
Decay rate:    1.7500E-006 rev/day^2
Epoch rev:           15851
Checksum:              375

Satellite: GOES 11
Catalog number: 26352
Epoch time:      103036.42531797
Element set:     8 
Inclination:        0.1035 deg
RA of node:       102.9340 deg
Eccentricity:    0.0003692
Arg of perigee:   213.6350 deg
Mean anomaly:     218.6060 deg
Mean motion:    1.00263671 rev/day
Decay rate:   -3.7000E-007 rev/day^2
Epoch rev:            1010
Checksum:              224

Satellite: EUTELSAT W4
Catalog number: 26369
Epoch time:      103028.81856696
Element set:     348 
Inclination:        0.0297 deg
RA of node:        41.0424 deg
Eccentricity:    0.0009627
Arg of perigee:   313.4883 deg
Mean anomaly:     103.8214 deg
Mean motion:    1.00274845 rev/day
Decay rate:    1.5099E-006 rev/day^2
Epoch rev:             984
Checksum:              304

Satellite: FENGYUN 2B
Catalog number: 26382
Epoch time:      103036.24623404
Element set:     785 
Inclination:        0.5890 deg
RA of node:       287.1581 deg
Eccentricity:    0.0001679
Arg of perigee:   223.2366 deg
Mean anomaly:     177.2557 deg
Mean motion:    1.00282261 rev/day
Decay rate:   -3.3100E-006 rev/day^2
Epoch rev:             957
Checksum:              281

Satellite: EUTELSAT W1
Catalog number: 26487
Epoch time:      103032.84759476
Element set:     350 
Inclination:        0.0132 deg
RA of node:       253.0304 deg
Eccentricity:    0.0004193
Arg of perigee:   328.4501 deg
Mean anomaly:     225.2537 deg
Mean motion:    1.00272552 rev/day
Decay rate:    5.8000E-007 rev/day^2
Epoch rev:             885
Checksum:              364

Satellite: ASTRA 2B
Catalog number: 26494
Epoch time:      103023.00000000
Element set:     252 
Inclination:        0.0178 deg
RA of node:       354.5658 deg
Eccentricity:    0.0005000
Arg of perigee:   302.8402 deg
Mean anomaly:     212.7100 deg
Mean motion:    1.00276704 rev/day
Decay rate:    1.5399E-006 rev/day^2
Epoch rev:             865
Checksum:              221

Satellite: NOAA 16
Catalog number: 26536
Epoch time:      103035.90477657
Element set:     196 
Inclination:       98.9009 deg
RA of node:       344.2908 deg
Eccentricity:    0.0010370
Arg of perigee:   349.0782 deg
Mean anomaly:      11.0326 deg
Mean motion:   14.11897499 rev/day
Decay rate:    5.5099E-006 rev/day^2
Epoch rev:           12222
Checksum:              327

Satellite: SAUDISAT 1A
Catalog number: 26545
Epoch time:      103035.61636377
Element set:     408 
Inclination:       64.5584 deg
RA of node:        74.8057 deg
Eccentricity:    0.0053044
Arg of perigee:   241.1073 deg
Mean anomaly:     118.4724 deg
Mean motion:   14.78942739 rev/day
Decay rate:    1.3849E-005 rev/day^2
Epoch rev:           12716
Checksum:              416

Satellite: UNISAT
Catalog number: 26547
Epoch time:      103035.60987836
Element set:     427 
Inclination:       64.5574 deg
RA of node:        77.1138 deg
Eccentricity:    0.0060193
Arg of perigee:   243.4530 deg
Mean anomaly:     116.0408 deg
Mean motion:   14.79682882 rev/day
Decay rate:    2.1489E-005 rev/day^2
Epoch rev:           12712
Checksum:              319

Satellite: TIUNGSAT 1
Catalog number: 26548
Epoch time:      103035.52537267
Element set:     413 
Inclination:       64.5577 deg
RA of node:        68.1304 deg
Eccentricity:    0.0046279
Arg of perigee:   240.1427 deg
Mean anomaly:     119.5082 deg
Mean motion:   14.81219227 rev/day
Decay rate:    1.6390E-005 rev/day^2
Epoch rev:           12729
Checksum:              400

Satellite: SAUDISAT 1B
Catalog number: 26549
Epoch time:      103036.52210659
Element set:     684 
Inclination:       64.5543 deg
RA of node:        76.0692 deg
Eccentricity:    0.0057365
Arg of perigee:   241.0895 deg
Mean anomaly:     118.4456 deg
Mean motion:   14.77883143 rev/day
Decay rate:    1.1219E-005 rev/day^2
Epoch rev:           12721
Checksum:              314

Satellite: AMSAT OSCAR 40
Catalog number: 26609
Epoch time:      103035.10689355
Element set:     310 
Inclination:        8.0513 deg
RA of node:        66.8265 deg
Eccentricity:    0.7939440
Arg of perigee:   140.0872 deg
Mean anomaly:     318.9916 deg
Mean motion:    1.25596472 rev/day
Decay rate:   -1.6899E-006 rev/day^2
Epoch rev:            1040
Checksum:              314

Satellite: GOES 12
Catalog number: 26871
Epoch time:      103035.15881166
Element set:     805 
Inclination:        0.3631 deg
RA of node:       276.7106 deg
Eccentricity:    0.0003236
Arg of perigee:     0.8157 deg
Mean anomaly:     174.3330 deg
Mean motion:    1.00363256 rev/day
Decay rate:   -1.4500E-006 rev/day^2
Epoch rev:             569
Checksum:              257

Satellite: PCSAT
Catalog number: 26931
Epoch time:      103035.94823786
Element set:     413 
Inclination:       67.0483 deg
RA of node:       290.6801 deg
Eccentricity:    0.0005078
Arg of perigee:   262.8198 deg
Mean anomaly:      97.2324 deg
Mean motion:   14.29107247 rev/day
Decay rate:    1.4099E-006 rev/day^2
Epoch rev:            7040
Checksum:              311

Satellite: SAPPHIRE
Catalog number: 26932
Epoch time:      103035.92799366
Element set:     410 
Inclination:       67.0562 deg
RA of node:       290.4404 deg
Eccentricity:    0.0005458
Arg of perigee:   239.5642 deg
Mean anomaly:     120.4920 deg
Mean motion:   14.29288646 rev/day
Decay rate:    8.4999E-007 rev/day^2
Epoch rev:            7042
Checksum:              327

Satellite: ENVISAT
Catalog number: 27386
Epoch time:      103036.41134396
Element set:     911 
Inclination:       98.5459 deg
RA of node:       105.1505 deg
Eccentricity:    0.0000966
Arg of perigee:    92.3705 deg
Mean anomaly:     267.7589 deg
Mean motion:   14.32253070 rev/day
Decay rate:    2.1900E-006 rev/day^2
Epoch rev:            4886
Checksum:              425

Satellite: IDEFIX/ARIANE 
Catalog number: 27422
Epoch time:      103036.21913915
Element set:     225 
Inclination:       98.6966 deg
RA of node:       115.4812 deg
Eccentricity:    0.0012624
Arg of perigee:   185.1476 deg
Mean anomaly:     174.9577 deg
Mean motion:   14.27961896 rev/day
Decay rate:    2.2799E-006 rev/day^2
Epoch rev:            3955
Checksum:              346

